User: anonymous   Login
Location: Unspecified
(0.0000°N, 0.0000°E)
Time: 01:05:30
(UTC+00:00)
Language:

STARLINK-4664 - Orbit

View from above orbital plane
View from above orbital plane
View from above satellite
View from above satellite

Ground track
Ground track

The orbit is defined by the following mean orbital elements,

1 53777U          26145.39356613 +.00000000 +00000-0 +53348-4 0 00003
2 53777  53.2140 289.9384 0001277  88.9790 271.1348 15.08835239    07
Epoch (UTC): 25 May 2026 09:26:44
Eccentricity: 0.0001277
inclination: 53.2140°
perigee height: 539 km
apogee height: 541 km
right ascension of ascending node: 289.9384°
argument of perigee: 88.9790°
revolutions per day: 15.08835239
mean anomaly at epoch: 271.1348°

The dashed part of the orbit path shows where the satellite is in the earth's shadow,  

DLR